www.pogodaiklimat.ru
Время
(UTC), дата
06 13.01
09 13.01
12 13.01
15 13.01
18 13.01
21 13.01
00 14.01
03 14.01
06 14.01
09 14.01
12 14.01
15 14.01
18 14.01
21 14.01
00 15.01
03 15.01
06 15.01
09 15.01
12 15.01
15 15.01
18 15.01
21 15.01
00 16.01
03 16.01
06 16.01
09 16.01
12 16.01
15 16.01
18 16.01
21 16.01
00 17.01
03 17.01
06 17.01
09 17.01
12 17.01
15 17.01
18 17.01
21 17.01
00 18.01
03 18.01
06 18.01
09 18.01
12 18.01
15 18.01
18 18.01
21 18.01
00 19.01
03 19.01
06 19.01
09 19.01
12 19.01
15 19.01
18 19.01
21 19.01
00 20.01
Ветер
(напр.,м/с)
Видим. Явления Облачность Т
(С)
Тd
(С)
f
(%)
Тe
(С)
Тes
(С)
Комфортность P
(гПа)
Po
(гПа)
Тmin
(С)
Tmax
(С)
R
(мм)
R24
(мм)
S
(см)
штиль 0 800 м переохл. туман {ливн. снег} ?/? -2.5 -2.8 98 -4 -4 по сезону 1006.4 971.7 -3.4 0.0
штиль 0 2800 м слаб. ливневой снег {туман} 10/10 210 м
[Cb cap]
-1.3 -1.5 99 -3 -3 по сезону 1006.7 972.1
З 2 20 км в посл. час ливневой снег {туман} 10/10 300 м
[Cb cap]
+0.4 -1.3 88 -3 -3 по сезону 1005.9 971.5
З 5 10 км в посл. час ливневой снег 10/10 240 м
[Cb cap]
-0.2 -2.2 86 -6 -6 по сезону 1006.9 972.4
З 5 4100 м слаб. ливневой снег 10/10 180 м
[Cb cap]
-1.0 -2.3 91 -7 -7 по сезону 1007.9 973.3 +0.8 0.3
З 4 40 км {ливн. снег} 8/6 800 м
[Sc Ac trans]
-2.2 -6.4 73 -8 -8 по сезону 1007.6 972.8
З 1 20 км {ливн. снег} 9/6 1200 м
[Sc Ac trans]
-2.6 -4.8 85 -5 -5 по сезону 1006.2 971.4
Ю 2 20 км 8/4 1500 м
[Sc Ac trans]
-6.7 -7.5 94 -11 -11 по сезону 1006.0 970.7
штиль 0 4300 м слаб. ливневой снег 10/10 240 м
[Cb cap]
-3.4 -4.2 94 -5 -5 по сезону 1005.0 970.2 -7.0 0.2 2
СЗ 1 3000 м слаб. ливневой снег 10/10 210 м
[Cb cap]
-1.6 -2.4 94 -4 -4 по сезону 1005.2 970.6
З 2 10 км слаб. ливневой снег 10/10 180 м
[Cb cap]
-0.2 -1.3 92 -4 -4 по сезону 1004.6 970.2
СЗ 3 10 км в посл. час ливневой снег 9/9 1300 м
[Sc]
-1.5 -3.8 84 -6 -6 по сезону 1006.4 971.8
З 4 6000 м слаб. ливневой снег 9/9 600 м
[Cb cap]
-1.8 -3.5 88 -8 -8 по сезону 1007.8 973.1 +0.2 2
С 4 2600 м слаб. ливневой снег 10/10 420 м
[Cb cap]
-2.6 -3.9 91 -9 -9 по сезону 1009.4 974.5
СЗ 4 1200 м ливневой снег 10/10 120 м
[Cb cap]
-4.2 -5.4 91 -11 -11 прохладно 1011.2 976.1
З 3 4400 м слаб. ливневой снег 10/10 210 м
[Cb cap]
-5.1 -6.8 88 -11 -11 по сезону 1012.4 977.1
З 4 2700 м слаб. ливневой снег 10/10 210 м
[Cb cap]
-5.4 -6.8 90 -12 -12 прохладно 1013.7 978.3 -5.5 3 9
С 5 2800 м слаб. ливневой снег 10/10 120 м
[Cb cap]
-6.1 -7.6 89 -13 -13 холодно 1016.3 980.7
З 5 10 км слаб. ливневой снег 9/9 600 м
[Cb cap]
-5.5 -9.7 72 -13 -12 очень
холодно
1016.5 981.0
З 3 50 км {ливн. снег} 6/0
[Ac trans]
-6.7 -12.2 65 -12 -12 холодно 1017.2 981.5
З 3 30 км {ливн. снег} 4/0
[Ac trans]
-10.3 -12.9 81 -16 -16 очень
холодно
1018.0 981.8 -4.0 2
ЮЗ 3 20 км 6/0
[Ac trans]
-9.6 -13.1 76 -15 -15 холодно 1017.3 981.2
З 3 10 км слаб. ливневой снег 9/9 600 м
[Cb cap]
-7.0 -9.5 82 -13 -13 холодно 1016.0 980.3
СЗ 6 30 км слаб. ливневой снег {метель} 10/10 600 м
[Cb calv]
-7.7 -12.1 71 -16 -16 очень
холодно
1017.1 981.3
СЗ 5 20 км {ливн. снег, метель} 10/10 660 м
[Cb calv]
-12.1 -15.9 73 -20 -20 очень
холодно
1019.8 983.3 -12.2 0.3 11
З 2 20 км {ливн. снег} 6/0
[Ac trans]
-9.9 -15.1 66 -14 -13 холодно 1019.6 983.4
СЗ 4 20 км слаб. снег 8/8 800 м
[Sc]
-7.4 -12.7 66 -14 -14 очень
холодно
1017.1 981.3
СЗ 2 4100 м слаб. ливневой снег 10/10 400 м
[Cb cap]
-8.3 -11.5 78 -13 -13 холодно 1017.3 981.4
штиль 0 10 км {ливн. снег, снег} 6/6 1000 м
[Sc]
-13.8 -15.1 90 -14 -14 холодно 1018.0 981.3 -7.1 0.0
штиль 0 5000 м слаб. ливневой снег 9/9 600 м
[Cb cap]
-9.7 -10.9 91 -10 -10 прохладно 1016.9 980.8
штиль 0 10 км {ливн. снег} 4/4 1000 м
[Sc]
-12.0 -13.3 90 -12 -12 прохладно 1016.4 980.0
штиль 0 10 км 4/0
[Ac trans]
-15.3 -17.0 87 -15 -15 холодно 1016.3 979.5
штиль 0 10 км 8/8 1200 м
[Sc]
-14.3 -15.6 90 -14 -14 холодно 1016.8 980.1 -15.8 0.0 10
штиль 0 6000 м дымка {ливн. снег} 9/6 800 м
[Sc Ac trans]
-6.2 -9.3 79 -7 -6 по сезону 1017.0 981.4
СЗ 4 10 км слаб. ливневой снег 10/10 570 м
[Cb cap]
-3.8 -7.8 74 -10 -10 холодно 1016.6 981.3
СЗ 4 20 км {ливн. снег} 9/6 800 м
[Sc Ac trans]
-4.5 -8.3 75 -11 -11 холодно 1017.5 982.1
СЗ 4 2300 м слаб. ливневой снег 10/10 420 м
[Cb cap]
-6.0 -9.0 79 -12 -12 холодно 1019.4 983.7 -2.5 0.0
СЗ 5 9000 м слаб. ливневой снег 10/10 300 м
[Cb cap]
-7.6 -10.2 82 -15 -15 очень
холодно
1020.1 984.2
СЗ 6 10 км слаб. ливневой снег 10/10 480 м
[Cb cap]
-9.0 -12.4 76 -17 -17 очень
холодно
1020.8 984.7
СЗ 5 10 км {ливн. снег, метель} 10/10 800 м
[Sc]
-10.1 -13.8 74 -18 -18 очень
холодно
1021.4 985.1
СЗ 5 10 км {ливн. снег, метель} 10/10 600 м
[Sc]
-10.4 -14.0 75 -18 -18 очень
холодно
1022.1 985.7 -10.5 0.4 8
СЗ 4 10 км слаб. ливневой снег 10/10 300 м
[Cb cap]
-10.4 -14.6 71 -17 -17 очень
холодно
1023.6 987.2
СЗ 5 10 км в посл. час ливневой снег 8/8 900 м
[Sc]
-10.1 -15.2 66 -18 -18 очень
холодно
1023.1 986.7
СЗ 1 10 км 4/0
[Ci fib]
-11.6 -15.6 72 -14 -14 очень
холодно
1023.5 986.9
ЮЗ 2 10 км ясно -17.0 -18.9 85 -22 -22 очень
холодно
1024.9 987.5 -9.8 0.2
ЮЗ 1 7000 м дымка ясно -18.1 -19.6 88 -21 -21 очень
холодно
1025.5 987.9
штиль 0 7000 м дымка ясно -19.4 -20.9 88 -19 -19 очень
холодно
1024.9 987.2
штиль 0 6000 м дымка 8/0
[Ac trans]
-19.0 -20.9 85 -19 -19 очень
холодно
1024.0 986.4
штиль 0 4700 м дымка 9/9 900 м
[Sc]
-14.9 -16.9 85 -15 -15 очень
холодно
1022.6 985.6 -19.8 8
штиль 0 5000 м {ливн. снег} 9/9 600 м
[Cb cap]
-11.7 -14.1 82 -12 -12 холодно 1022.1 985.6
штиль 0 2400 м слаб. ливневой снег 10/10 240 м
[Cb cap]
-6.9 -9.8 80 -8 -8 прохладно 1019.5 983.7
В 1 1800 м ливневой снег 10/10 150 м
[Cb cap]
-6.8 -8.4 88 -9 -9 прохладно 1019.2 983.4
ЮВ 1 2100 м слаб. ливневой снег 10/10 150 м
[Cb cap]
-6.3 -7.5 91 -9 -9 прохладно 1018.9 983.2 -6.2 2
штиль 0 4800 м дымка {ливн. снег} 10/10 600 м
[Sc]
-6.3 -7.5 91 -7 -7 по сезону 1018.1 982.4
СВ 2 4900 м дымка {ливн. снег} 10/10 900 м
[Sc]
-6.6 -7.8 91 -11 -11 прохладно 1017.1 981.4
Местоположение метеостанции Ивано-Франковск (Ивано-Франковская область, Украина): широта 48.97 долгота 24.70 высота над уровнем моря 280 м.
В архиве по умолчанию представлена погода в Ивано-Франковске за последнюю неделю. Архивные данные за месяц целиком и за предыдущие месяцы, начиная с января 2011 года, Вы можете получить, выбрав интересующий диапазон дат из раскрывающегося списка и нажав кнопку "Найти!".
*Определитесь, кто Вы:
Внимание! Время в таблицах - всемирное. Для получения местного времени необходимо прибавить поправку, которая равна 2 ч.
Смотрите также архив погоды в соседних городах и на ближайших метеорологических станциях:
Партнеры нашего сайта:
Пвх плитка
Где дешевле Плитка ламинат? Я нашел здесь
wvfloor.ru

Массажная подушка релакс отзывы
Массажные подушки
mybeurer.ru

     
Пояснения к столбцам:
  • Ветер - указаны скорость ветра в м/с - средняя за 10 мин, порывы в срок и между сроками (в фигурных скобках) и направление, откуда дует ветер: С - северный,
  • СВ - северо-восточный, В - восточный, ЮВ - юго-восточный, Ю - южный, ЮЗ - юго-западный, З - западный, СЗ - северо-западный.
  • Видимость - горизонтальная дальность видимости в метрах или километрах. При видимости от 1 до 10 км при отсутствии осадков обычно наблюдается дымка, при ухудшении видимости до 1 км и менее - туман. В сухую погоду видимость может ухудшаться дымом, пылью или мглою.
  • Явления - указаны атмосферные явления, наблюдавшиеся в срок или в последний час перед сроком; фигурными скобками обозначены явления, наблюдавшиеся между сроками (за 1-3 часа до срока); квадратными скобками обозначены град или гололедные отложения с указанием их диаметра в мм.
  • Облачность - указаны через наклонную черту общая и нижняя облачность в баллах и высота нижней границы облаков в метрах; квадратными скобками обозначены формы облаков: Ci - перистые, Cs - перисто-слоистые, Cc - перисто-кучевые, Ac - высококучевые, As - высокослоистые, Sc - слоисто-кучевые, Ns - слоисто-дождевые, Cu - кучевые, Cb - кучево-дождевые. Подробнее классификацию облаков см. в Атласе облаков (PDF).
  • T - Температура воздуха - температура, измеренная на высоте 2 м над землей.
  • Td - Температура точки росы - температура, при понижении до которой содержащийся в воздухе водяной пар достигнет насыщения.
  • f - Относительная влажность воздуха - влажноcть воздуха, измеренная на высоте 2 м над землей.
  • Te - Эффективная температура - температура, которую ощущает одетый по сезону человек в тени. Характеристика душности погоды. При расчете учитывается влияние влажности воздуха и скорости ветра на теплоощущения человека.
  • Tes - Эффективная температура на солнце - температура, которую ощущает человек, с поправкой на солнечный нагрев. Характеристика знойности погоды. Зависит от высоты солнца над горизонтом, облачности и скорости ветра. Ночью, в пасмурную погоду, а также при ветре 12 м/с и более поправка равна нулю.
  • P - Атмосферное давление - приведенное к уровню моря атмосферное давление.
  • Po - Атмосферное давление - измеренное на уровне метеостанции атмосферное давление.
  • Tmin - Минимальная температура - минимум температуры воздуха на высоте 2 м над землей.
  • Tmax - Максимальная температура - максимум температуры воздуха на высоте 2 м над землей.
  • R - Количество осадков - Количество выпавших осадков за период времени, мм. При наведении курсора мыши на число - период времени, за который выпало указанное количество осадков.
  • R24 - Количество осадков - Количество выпавших осадков за 24 часа, мм.
  • S - Снежный покров - Высота снежного покрова, см. При наведении курсора мыши на число - состояние снежного покрова и степень покрытия местности в баллах.